When you browse on this site, cookies collect data to enhance your experience and personalize the content and advertising you see.
Visit our Privacy Policy to learn more. By continuing to use the site, you agree to this use of cookies and data.
  • în România
  • Lista ţărilor
  • Pe 7 zile
  • Temperatura apei
  • Hartă satelitară
  • Meteo pe hartă
  • Widget-uri
  • user-avatar
    Intrare

    Meteo pe oră la Batina

    Astăzi, 18 Aprilie, Joi

    Timp Temperatura Precipitaţii Vânt Presiune Umiditate
    00:00 +16°C° 0 mm 2 m/s 671 mmHg 44%
    01:00 +16°C° 0 mm 2 m/s 670 mmHg 43%
    02:00 +16°C° 0 mm 2 m/s 670 mmHg 43%
    03:00 +15°C° 0 mm 2 m/s 670 mmHg 42%
    04:00 +16°C° 0 mm 2 m/s 670 mmHg 42%
    05:00 +16°C° 0 mm 2 m/s 670 mmHg 42%
    06:00 +17°C° 0 mm 3 m/s 670 mmHg 42%
    07:00 +19°C° 0 mm 3 m/s 671 mmHg 36%
    08:00 +22°C° 0 mm 3 m/s 671 mmHg 31%
    09:00 +25°C° 0 mm 4 m/s 672 mmHg 25%
    10:00 +26°C° 0 mm 4 m/s 672 mmHg 23%
    11:00 +27°C° 0 mm 5 m/s 672 mmHg 20%
    12:00 +27°C° 0 mm 6 m/s 672 mmHg 21%
    13:00 +27°C° 0 mm 6 m/s 671 mmHg 20%
    14:00 +27°C° 0 mm 6 m/s 671 mmHg 19%
    15:00 +27°C° 0 mm 6 m/s 671 mmHg 18%
    16:00 +26°C° 0 mm 5 m/s 670 mmHg 22%
    17:00 +24°C° 0 mm 3 m/s 670 mmHg 25%
    18:00 +23°C° 0 mm 2 m/s 669 mmHg 29%
    19:00 +21°C° 0 mm 2 m/s 669 mmHg 31%
    20:00 +20°C° 0 mm 2 m/s 669 mmHg 33%
    21:00 +19°C° 0 mm 2 m/s 669 mmHg 34%
    22:00 +19°C° 0 mm 2 m/s 669 mmHg 34%
    23:00 +19°C° 0 mm 2 m/s 669 mmHg 34%

    Mâine, 19 Aprilie, Vineri

    Timp Temperatura Precipitaţii Vânt Presiune Umiditate
    00:00 +19°C° 0 mm 3 m/s 669 mmHg 33%
    01:00 +19°C° 0 mm 3 m/s 669 mmHg 34%
    02:00 +19°C° 0 mm 3 m/s 669 mmHg 34%
    03:00 +18°C° 0 mm 3 m/s 669 mmHg 34%
    04:00 +18°C° 0 mm 4 m/s 669 mmHg 34%
    05:00 +19°C° 0 mm 4 m/s 669 mmHg 34%
    06:00 +19°C° 0 mm 4 m/s 669 mmHg 34%
    07:00 +21°C° 0 mm 7 m/s 670 mmHg 29%
    08:00 +23°C° 0 mm 9 m/s 671 mmHg 25%
    09:00 +26°C° 0 mm 11 m/s 671 mmHg 20%
    10:00 +27°C° 0 mm 11 m/s 671 mmHg 18%
    11:00 +28°C° 0 mm 11 m/s 671 mmHg 17%
    12:00 +28°C° 0 mm 11 m/s 671 mmHg 16%
    13:00 +28°C° 0 mm 11 m/s 671 mmHg 17%
    14:00 +28°C° 0 mm 10 m/s 670 mmHg 18%
    15:00 +28°C° 0 mm 10 m/s 669 mmHg 19%
    16:00 +26°C° 0 mm 9 m/s 669 mmHg 24%
    17:00 +23°C° 0 mm 8 m/s 668 mmHg 28%
    18:00 +22°C° 0 mm 7 m/s 668 mmHg 32%
    19:00 +21°C° 0 mm 7 m/s 668 mmHg 34%
    20:00 +20°C° 0 mm 7 m/s 668 mmHg 35%
    21:00 +19°C° 0 mm 6 m/s 668 mmHg 36%
    22:00 +18°C° 0 mm 7 m/s 667 mmHg 37%
    23:00 +17°C° 0 mm 7 m/s 667 mmHg 37%

    Poimâine, 20 Aprilie, Sâmbătă

    Timp Temperatura Precipitaţii Vânt Presiune Umiditate
    00:00 +17°C° 0 mm 7 m/s 667 mmHg 38%
    01:00 +17°C° 0 mm 7 m/s 667 mmHg 38%
    02:00 +16°C° 0 mm 7 m/s 666 mmHg 38%
    03:00 +16°C° 0 mm 6 m/s 666 mmHg 38%
    04:00 +16°C° 0 mm 6 m/s 666 mmHg 39%
    05:00 +16°C° 0 mm 6 m/s 666 mmHg 39%
    06:00 +16°C° 0 mm 5 m/s 666 mmHg 39%
    07:00 +19°C° 0 mm 6 m/s 667 mmHg 34%
    08:00 +22°C° 0 mm 6 m/s 668 mmHg 28%
    09:00 +24°C° 0 mm 6 m/s 668 mmHg 22%
    10:00 +26°C° 0 mm 7 m/s 668 mmHg 22%
    11:00 +26°C° 0 mm 8 m/s 668 mmHg 22%
    12:00 +27°C° 0 mm 8 m/s 668 mmHg 22%
    13:00 +26°C° 0 mm 8 m/s 667 mmHg 23%
    14:00 +26°C° 0 mm 8 m/s 667 mmHg 24%
    15:00 +26°C° 0 mm 8 m/s 667 mmHg 25%
    16:00 +24°C° 0 mm 6 m/s 666 mmHg 27%
    17:00 +22°C° 0 mm 4 m/s 666 mmHg 29%
    18:00 +21°C° 0 mm 3 m/s 666 mmHg 32%
    19:00 +19°C° 0 mm 2 m/s 666 mmHg 41%
    20:00 +18°C° 0 mm 2 m/s 666 mmHg 50%
    21:00 +16°C° 0 mm 1 m/s 666 mmHg 60%
    22:00 +15°C° 0 mm 2 m/s 666 mmHg 66%
    23:00 +15°C° 0 mm 2 m/s 665 mmHg 73%

    21 Aprilie, Duminică

    Timp Temperatura Precipitaţii Vânt Presiune Umiditate
    00:00 +14°C° 0 mm 2 m/s 665 mmHg 80%
    01:00 +14°C° 0 mm 2 m/s 664 mmHg 82%
    02:00 +13°C° 0 mm 2 m/s 664 mmHg 84%
    03:00 +13°C° 0 mm 2 m/s 663 mmHg 86%
    04:00 +12°C° 0 mm 3 m/s 663 mmHg 84%
    05:00 +12°C° 0 mm 3 m/s 663 mmHg 81%
    06:00 +12°C° 0 mm 3 m/s 663 mmHg 79%
    07:00 +14°C° 0 mm 3 m/s 664 mmHg 70%
    08:00 +17°C° 0 mm 3 m/s 664 mmHg 60%
    09:00 +18°C° 0 mm 3 m/s 664 mmHg 51%
    10:00 +20°C° 0 mm 4 m/s 664 mmHg 45%
    11:00 +22°C° 0 mm 4 m/s 664 mmHg 38%
    12:00 +25°C° 0 mm 5 m/s 664 mmHg 31%
    13:00 +24°C° 0 mm 6 m/s 663 mmHg 27%
    14:00 +26°C° 0 mm 8 m/s 663 mmHg 24%
    15:00 +26°C° 0 mm 10 m/s 662 mmHg 20%
    16:00 +24°C° 0 mm 8 m/s 662 mmHg 21%
    17:00 +23°C° 0 mm 7 m/s 661 mmHg 23%
    18:00 +22°C° 0 mm 5 m/s 660 mmHg 25%
    19:00 +21°C° 0 mm 5 m/s 660 mmHg 25%
    20:00 +20°C° 0 mm 5 m/s 660 mmHg 25%
    21:00 +19°C° 0 mm 4 m/s 659 mmHg 26%
    22:00 +18°C° 0 mm 4 m/s 659 mmHg 27%
    23:00 +18°C° 0 mm 4 m/s 659 mmHg 28%

    22 Aprilie, Luni

    Timp Temperatura Precipitaţii Vânt Presiune Umiditate
    00:00 +17°C° 0 mm 4 m/s 658 mmHg 30%
    01:00 +16°C° 0 mm 3 m/s 658 mmHg 30%
    02:00 +14°C° 0 mm 3 m/s 657 mmHg 30%
    03:00 +15°C° 0 mm 2 m/s 656 mmHg 30%
    04:00 +14°C° 0 mm 3 m/s 657 mmHg 30%
    05:00 +14°C° 0 mm 3 m/s 657 mmHg 30%
    06:00 +14°C° 0 mm 4 m/s 657 mmHg 30%
    07:00 +16°C° 0 mm 6 m/s 657 mmHg 32%
    08:00 +17°C° 0 mm 9 m/s 658 mmHg 34%
    09:00 +18°C° 0 mm 11 m/s 658 mmHg 37%
    10:00 +17°C° 0.2 mm 11 m/s 658 mmHg 41%
    11:00 +17°C° 0.2 mm 10 m/s 658 mmHg 46%
    12:00 +16°C° 0.2 mm 9 m/s 658 mmHg 50%
    13:00 +17°C° 0.1 mm 9 m/s 658 mmHg 50%
    14:00 +17°C° 0.1 mm 9 m/s 659 mmHg 50%
    15:00 +17°C° 0.1 mm 9 m/s 659 mmHg 49%
    16:00 +16°C° 0.1 mm 8 m/s 660 mmHg 54%
    17:00 +15°C° 0.1 mm 7 m/s 660 mmHg 58%
    18:00 +14°C° 0.1 mm 7 m/s 661 mmHg 63%
    19:00 +13°C° 0 mm 6 m/s 661 mmHg 66%
    20:00 +11°C° 0 mm 6 m/s 662 mmHg 68%
    21:00 +12°C° 0 mm 5 m/s 663 mmHg 71%
    22:00 +10°C° 0 mm 5 m/s 662 mmHg 74%
    23:00 +11°C° 0 mm 4 m/s 662 mmHg 76%

    23 Aprilie, Marţi

    Timp Temperatura Precipitaţii Vânt Presiune Umiditate
    00:00 +10°C° 0 mm 4 m/s 662 mmHg 79%
    01:00 +10°C° 0 mm 3 m/s 662 mmHg 80%
    02:00 +9°C° 0 mm 3 m/s 662 mmHg 81%
    03:00 +9°C° 0 mm 2 m/s 662 mmHg 83%
    04:00 +9°C° 0 mm 2 m/s 663 mmHg 76%
    05:00 +10°C° 0 mm 2 m/s 663 mmHg 70%
    06:00 +12°C° 0 mm 2 m/s 664 mmHg 64%
    07:00 +13°C° 0 mm 3 m/s 665 mmHg 53%
    08:00 +15°C° 0 mm 4 m/s 666 mmHg 42%
    09:00 +17°C° 0 mm 5 m/s 666 mmHg 31%
    10:00 +19°C° 0 mm 6 m/s 667 mmHg 30%
    11:00 +20°C° 0 mm 7 m/s 667 mmHg 29%
    12:00 +21°C° 0 mm 8 m/s 667 mmHg 28%
    13:00 +21°C° 0 mm 7 m/s 667 mmHg 29%
    14:00 +21°C° 0 mm 7 m/s 667 mmHg 30%
    15:00 +21°C° 0 mm 6 m/s 666 mmHg 31%
    16:00 +20°C° 0 mm 5 m/s 666 mmHg 34%
    17:00 +19°C° 0 mm 4 m/s 666 mmHg 36%
    18:00 +18°C° 0 mm 3 m/s 666 mmHg 39%
    19:00 +17°C° 0 mm 3 m/s 667 mmHg 41%
    20:00 +16°C° 0 mm 2 m/s 667 mmHg 43%
    21:00 +15°C° 0 mm 2 m/s 667 mmHg 46%
    22:00 +15°C° 0 mm 2 m/s 667 mmHg 46%
    23:00 +15°C° 0 mm 2 m/s 666 mmHg 46%
    Arată mai mult